Regional Weather Roundup
Issued by NWS

Home | Current Version | Previous Version | Text Only | Print | Product List | Glossary Off
Versions: 1 2 3 4 5 6 7 8 9 10 11 12 13 14 15 16 17 18 19 20 21 22 23 24 25 26 27 28 29 30 31 32 33 34 35 36 37 38 39 40 41 42 43 44 45 46 47 48 49 50

000
ASUS43 KLMK 052310
RWRKY
KENTUCKY REGIONAL WEATHER ROUNDUP
NATIONAL WEATHER SERVICE LOUISVILLE KY
600 PM EST THU MAR 05 2015

NOTE "FAIR" INDICATES FEW OR NO CLOUDS BELOW 12,000 FEET
WITH NO SIGNIFICANT WEATHER AND/OR OBSTRUCTIONS TO VISIBILITY.

KYZ001>023-026-027-061>063-070>075-060000-
WESTERN AND SOUTH CENTRAL KENTUCKY

CITY           SKY/WX    TMP DP  RH WIND       PRES   REMARKS
PADUCAH        CLEAR     23   6  48 N10       30.54R WCI  12
HENDERSON      CLEAR     21   3  45 N8        30.55R WCI  12
OWENSBORO      CLEAR     20   6  54 NW14      30.53R WCI   7
HOPKINSVILLE   NOT AVBL
BOWLING GREEN  CLEAR     26  10  50 NW10      30.49R WCI  16
GLASGOW        PTCLDY    24  14  65 N6        30.46R WCI  17
$$

KYZ024-025-028>034-038-045-046-053-060000-
NORTH CENTRAL KENTUCKY

CITY           SKY/WX    TMP DP  RH WIND       PRES   REMARKS
LOUISVILLE/SDF PTCLDY    27   8  44 N10       30.47R WCI  17
LOUISVILLE/LOU CLOUDY    27  12  53 N7        30.48R WCI  19
FORT KNOX      CLOUDY    25  12  58 N6        30.44R WCI  18
$$

KYZ035>037-039>044-047>052-055>060-089>105-060000-
NORTHEAST KENTUCKY

CITY           SKY/WX    TMP DP  RH WIND       PRES   REMARKS
LEXINGTON      FLURRIES  19  10  68 N6        30.44R WCI  11
COVINGTON      PTCLDY    22   7  52 N8        30.45R WCI  12
FRANKFORT      CLOUDY    24  12  60 N3        30.44R
$$

KYZ054-064>069-076>088-106>120-060000-
SOUTHEAST KENTUCKY

CITY           SKY/WX    TMP DP  RH WIND       PRES   REMARKS
JACKSON        CLOUDY    19  11  70 VRB3      30.40R
LONDON         MOCLDY    20  10  65 N10       30.42R WCI   9
SOMERSET       CLOUDY    21  14  73 N8        30.46R WCI  12
MIDDLESBORO    CLOUDY    24  19  81 CALM      30.39R
MONTICELLO     MIX PCPN  22  14  71 N10       30.47R WCI  11
$$




USA.gov is the U.S. government's official web portal to all federal, state and local government web resources and services.